Location: Charlottenburg
(52.5163°N, 13.3035°E)
Time: 20:45:58
(UTC+00:00)

Daily predictions for brighter satellites

Satellite Brightness Start Highest point End
(mag) Time Altitude Azimuth Time Altitude Azimuth Time Altitude Azimuth
STARLINK-1192 3.7 18:23:24 10° W 18:27:33 83° N 18:31:44 10° E
ARGOS 3.2 18:22:47 10° SSE 18:28:10 77° ENE 18:33:34 10° NNW
IRIDIUM 103 4.3 18:23:52 10° N 18:29:09 81° E 18:34:22 10° S
SL-16 R/B 3.5 18:25:00 10° WSW 18:30:25 45° NW 18:35:52 10° NNE
Cosmos 1726 Rocket 4.1 18:26:41 10° SSE 18:30:44 37° E 18:34:51 10° NNE
FREGAT/IRIS 2.3 18:28:42 10° SSE 18:31:25 89° E 18:34:10 10° NNW
STARLINK-1244 3.7 18:28:22 10° W 18:32:32 84° N 18:36:42 10° E
Cosmos 1825 Rocket 3.5 18:30:07 10° N 18:34:34 84° E 18:38:55 10° SSE
Resurs 01 Rocket 2.5 18:31:44 10° SE 18:35:39 32° ENE 18:39:35 10° N
ERBS 3.1 18:32:37 10° WNW 18:35:54 45° NNE 18:39:10 10° E
Cosmos 2154 Rocket 4.2 18:29:35 10° N 18:35:54 60° ENE 18:42:10 10° SSE
Intercosmos 24 Rocket 4.4 18:31:31 10° S 18:36:06 89° E 18:39:46 10° N
ATLAS CENTAUR R/B 3.5 18:33:24 10° NNW 18:36:07 17° NNE 18:38:44 10° NE
APEX 4.4 18:29:58 10° NNW 18:36:49 84° NE 18:42:25 10° SE
Nadezhda 1 Rocket 4.3 18:31:24 10° SSE 18:37:29 49° E 18:43:33 10° NNE
STARLINK-1138 3.7 18:33:22 10° W 18:37:32 85° N 18:41:42 10° E
USA 186 2.0 18:36:35 10° S 18:39:53 75° WSW 18:43:02 10° NNW
Cosmos 921 Rocket 3.4 18:36:40 10° NNW 18:40:43 44° ENE 18:44:44 10° SE
STARLINK-1143 3.6 18:38:20 10° W 18:42:30 86° N 18:46:36 10° E
STARLINK-1234 3.1 18:41:59 10° W 18:45:01 60° SSW 18:47:39 13° ESE
STARLINK-1233 2.9 18:41:54 10° W 18:45:03 71° SSW 18:47:47 13° ESE
Cosmos 1980 Rocket 4.3 18:41:50 10° NNW 18:45:13 16° NNE 18:48:37 10° ENE
STARLINK-1212 2.9 18:42:22 10° W 18:45:30 71° SSW 18:48:13 13° ESE
Cosmos 407 Rocket 3.9 18:41:13 10° S 18:45:57 39° ESE 18:50:42 10° NE
STARLINK-1105 3.0 18:42:49 10° W 18:45:57 71° SSW 18:48:40 13° ESE
STARLINK-1209 3.1 18:43:11 10° W 18:46:11 57° SSW 18:48:45 13° ESE
STARLINK-1206 2.9 18:43:17 10° W 18:46:25 70° SSW 18:49:04 13° ESE
STARLINK-1247 2.9 18:43:45 10° W 18:46:51 70° SSW 18:49:30 14° ESE
STARLINK-1227 3.0 18:44:09 10° W 18:47:18 70° SSW 18:49:57 14° ESE
STARLINK-1241 3.6 18:43:21 10° W 18:47:31 87° N 18:51:25 12° E
STARLINK-1218 2.9 18:44:40 10° W 18:47:46 69° SSW 18:50:22 14° ESE
STARLINK-1226 3.0 18:45:06 10° W 18:48:13 69° SSW 18:50:49 14° ESE
Cosmos 1758 Rocket 4.1 18:44:01 10° NNW 18:48:18 62° W 18:52:33 10° S
STARLINK-1254 3.0 18:45:31 10° W 18:48:39 69° SSW 18:51:15 14° ESE
STARLINK-1215 3.0 18:46:00 10° W 18:49:07 68° SSW 18:51:40 14° ESE
Cosmos 2228 3.0 18:45:10 10° S 18:49:25 63° E 18:53:45 10° NNE
STARLINK-1231 3.0 18:46:27 10° W 18:49:34 68° SSW 18:52:06 14° ESE
STARLINK-1232 3.0 18:47:22 10° W 18:50:29 67° SSW 18:52:59 15° ESE
STARLINK-1217 3.0 18:47:48 10° W 18:50:55 67° SSW 18:53:24 15° ESE
Cosmos 1461 3.1 18:46:30 10° NW 18:51:01 85° SW 18:55:35 10° SE
SPOT 3 Rocket 3.6 18:46:00 10° SSE 18:51:12 74° ENE 18:56:24 10° NNW
STARLINK-1208 3.0 18:48:13 10° W 18:51:21 67° SSW 18:53:51 15° ESE
STARLINK-1229 3.0 18:48:42 10° W 18:51:48 66° SSW 18:54:16 15° ESE
STARLINK-1271 3.0 18:49:09 10° W 18:52:16 66° SSW 18:54:43 15° ESE
STARLINK-1239 3.6 18:48:17 10° W 18:52:28 89° NNE 18:56:09 13° E
STARLINK-1270 3.0 18:49:37 10° W 18:52:43 66° SSW 18:55:09 15° ESE
Cosmos 1603 3.8 18:47:29 10° SSW 18:53:07 82° WNW 18:58:47 10° NNE
STARLINK-1154 3.0 18:50:04 10° W 18:53:10 66° SSW 18:55:34 15° ESE
STARLINK-1197 3.0 18:50:58 10° W 18:54:05 65° SSW 18:56:26 16° ESE
Aureole 1 Rocket 4.2 18:47:24 10° S 18:54:29 53° ESE 19:00:03 10° NE
STARLINK-1189 3.0 18:51:25 10° W 18:54:31 65° SSW 18:56:52 16° ESE
STARLINK-1198 3.0 18:51:52 10° W 18:54:58 64° SSW 18:57:18 16° ESE
STARLINK-1188 3.0 18:52:19 10° W 18:55:25 64° SSW 18:57:44 16° ESE
STARLINK-1235 3.2 18:52:58 10° W 18:56:04 56° SSW 18:58:23 16° SE
Cosmos 1953 Rocket 3.7 18:51:45 10° NNW 18:56:15 86° W 19:00:44 10° S
STARLINK-1187 3.1 18:53:23 10° W 18:56:31 60° SSW 18:58:50 16° ESE
STARLINK-1199 3.1 18:54:15 10° W 18:57:22 63° SSW 18:59:39 17° ESE
STARLINK-1240 3.6 18:53:17 10° W 18:57:28 90° SSE 19:00:57 14° E
Cosmos 2074 Rocket 4.4 18:51:23 10° NNW 18:57:38 69° W 19:03:52 10° S
SJ-6B 3.3 18:53:39 10° S 18:57:46 69° WSW 19:01:54 10° NNW
STARLINK-1191 3.1 18:54:42 10° W 18:57:50 63° SSW 19:00:06 17° ESE
STARLINK-1210 3.1 18:55:09 10° W 18:58:16 62° SSW 19:00:31 17° ESE
STARLINK-1221 3.1 18:55:37 10° W 18:58:44 62° SSW 19:00:58 17° ESE
STARLINK-1219 3.1 18:56:03 10° W 18:59:10 62° SSW 19:01:23 17° ESE
ADEOS Rocket 4.5 18:53:29 10° N 18:59:36 43° WNW 19:05:09 10° SW
STARLINK-1222 3.1 18:56:31 10° W 18:59:38 61° SSW 19:01:49 18° ESE
STARLINK-1211 3.1 18:56:58 10° W 19:00:05 61° SSW 19:02:15 18° ESE
STARLINK-60 4.0 18:57:24 10° SSW 19:00:15 28° SSE 19:02:12 16° E
Cosmos 1606 Rocket 3.6 18:55:59 10° S 19:00:26 84° E 19:04:57 10° NNE
STARLINK-1214 3.1 18:57:24 10° W 19:00:32 61° SSW 19:02:41 18° ESE
ATLAS 5 CENTAUR R/B 2.3 18:57:09 10° S 19:00:51 31° ESE 19:04:59 10° ENE
STARLINK-1245 3.1 18:57:54 10° W 19:01:00 60° SSW 19:03:07 18° ESE
STARLINK-1238 3.1 18:58:18 10° W 19:01:26 60° SSW 19:03:34 18° ESE
STARLINK-1205 3.1 18:59:15 10° W 19:02:21 59° SSW 19:04:25 19° SE
STARLINK-1216 3.6 18:58:17 10° W 19:02:27 88° SSW 19:05:45 16° ESE
STARLINK-1204 3.1 18:59:42 10° W 19:02:47 59° SSW 19:04:50 19° SE
Meteor 1-16 Rocket 4.3 18:59:37 10° SSW 19:05:04 84° WNW 19:10:44 10° NNE
Cosmos 1818 3.5 19:00:27 10° SW 19:05:53 81° SE 19:11:23 10° NE
Terra 3.8 19:03:35 10° E 19:06:09 15° NE 19:08:44 10° NNE
STARLINK-1237 3.6 19:03:15 10° W 19:07:25 86° S 19:10:31 17° ESE
Abrixas rocket 3.1 19:07:28 10° WSW 19:10:08 30° SSW 19:11:30 20° SE
STARLINK-1202 3.6 19:08:14 10° W 19:12:24 84° S 19:15:18 19° ESE
Cosmos 2058 4.0 19:08:58 10° N 19:12:34 28° ENE 19:14:34 19° ESE
NOSS 3-4 (A) 4.3 19:06:11 10° NW 19:12:58 60° SW 19:20:26 10° SSE
NOSS 3-4 (C) 4.3 19:06:18 10° NW 19:13:04 60° SW 19:20:33 10° SSE
RESURS DK-1 4.0 19:11:35 10° NNW 19:14:57 23° NE 19:17:24 14° E
Cosmos 1076 Rocket 4.3 19:16:10 10° N 19:20:06 34° ENE 19:22:14 22° ESE
Cosmos 1300 3.2 19:17:23 15° SSE 19:20:11 39° E 19:23:46 10° NNE
FALCON 9 DEB 4.4 19:17:35 10° SSW 19:20:16 22° SE 19:20:16 22° SE
SL-4 R/B 1.8 19:17:33 10° SW 19:20:50 47° SSE 19:22:39 23° E
MOS 1 Rocket 3.7 19:15:56 10° NNE 19:21:16 61° E 19:26:39 10° S
STARLINK-1246 3.6 19:18:13 10° WNW 19:22:23 80° SSW 19:24:53 23° ESE
STARLINK-1203 3.6 19:18:50 10° WNW 19:23:03 77° SSW 19:25:34 23° ESE
CZ-2C R/B 3.7 19:18:57 10° NNE 19:23:43 86° ESE 19:28:22 10° SSW
STARLINK-1201 3.4 19:20:49 10° W 19:24:00 49° SSW 19:25:27 27° SE
NOSS 3-3 (A) 4.4 19:18:35 10° WSW 19:24:39 68° NW 19:31:37 10° NE
NOSS 3-3 (C) 4.4 19:18:41 10° WSW 19:24:45 68° NW 19:31:43 10° NE
Cosmos 1340 Rocket 2.7 19:20:46 10° S 19:24:48 78° ESE 19:28:51 10° NNE
STARLINK-67 4.3 19:24:25 10° W 19:26:24 20° SSW 19:27:10 18° S
STARLINK-1224 3.6 19:23:11 10° WNW 19:27:19 77° SSW 19:29:39 25° ESE
H-2A R/B 3.7 19:22:44 10° SSW 19:27:23 33° W 19:31:58 10° NNW
Cosmos 1763 Rocket 4.1 19:22:37 10° NNW 19:27:34 41° NE 19:30:28 22° ESE
STARLINK-1225 3.6 19:28:10 10° WNW 19:32:19 75° SSW 19:34:27 28° ESE
SAR-Lupe-2 4.0 19:32:17 10° NNE 19:35:42 39° E 19:36:47 30° SE
MetOp-B 4.1 19:33:00 18° SSE 19:36:58 72° ENE 19:42:20 10° NNW
STARLINK-1230 3.6 19:33:10 10° WNW 19:37:18 72° SSW 19:39:14 30° ESE
Cosmos 1174 4.1 19:33:53 10° NW 19:37:45 67° NE 19:40:09 28° ESE
Cosmos 1908 4.3 19:34:47 10° SSW 19:38:32 47° WNW 19:42:20 10° N
COSMOS 2406 4.5 19:39:02 20° E 19:39:02 20° E 19:42:53 10° NE
USA 234 3.8 19:34:40 10° ENE 19:40:28 33° SE 19:46:14 10° SSW
SeaSat 1 4.3 19:37:35 10° NNE 19:42:01 34° NW 19:46:25 10° WSW
Resurs 1-3 4.4 19:37:46 10° S 19:42:01 50° W 19:46:19 10° NNW
STARLINK-1243 3.6 19:38:08 10° WNW 19:42:16 69° SSW 19:44:01 33° SE
Iridium 4 Rocket 3.3 19:39:28 10° N 19:43:32 44° E 19:44:57 32° SE
ATLAS 2AS CENTAUR R/B 3.9 19:38:00 10° NW 19:44:56 40° WSW 19:51:20 10° S
STARLINK-1228 4.3 19:44:09 10° W 19:46:34 23° SSW 19:46:55 23° SSW
STARLINK-1236 3.7 19:43:06 10° WNW 19:47:14 66° SSW 19:48:47 36° SE
Cosmos 1943 4.4 19:43:51 10° WSW 19:49:18 46° NW 19:54:48 10° NNE
CZ-4C R/B 3.5 19:44:56 10° NW 19:51:18 47° NNE 19:56:49 18° E
Cosmos 1140 Rocket 3.5 19:48:26 10° SSW 19:53:38 86° WNW 19:58:50 10° NNE
Cosmos 2341 Rocket 4.3 19:47:22 10° NNW 19:53:45 72° W 19:59:56 11° S
Cosmos 2369 4.4 19:50:10 10° NNW 19:55:31 41° NE 19:58:10 26° E
STARLINK-1269 3.7 19:53:03 10° WNW 19:57:09 61° SSW 19:58:20 41° SE
DMSP B5D2-2 4.4 19:53:46 10° N 19:58:58 68° WNW 20:04:09 10° SSW
CZ-2C R/B 2.7 19:54:28 10° NNE 19:59:39 77° WNW 20:04:50 10° SSW
Spot 2 Rocket 3.5 19:56:53 25° SSE 19:59:58 88° WSW 20:05:07 10° NNW
Cosmos 1190 Rocket 4.3 19:54:49 10° SSW 20:00:07 70° WNW 20:05:25 10° NNE
Cosmos 2058 Rocket 4.0 19:56:07 10° SSW 20:00:30 50° WNW 20:04:55 10° N
Landsat 7 3.8 19:58:57 32° SSE 20:01:07 74° ENE 20:05:52 10° NNW
COSMOS 2455 3.6 19:55:23 10° NW 20:01:09 48° WSW 20:05:11 19° S
Cosmos 1697 Rocket 3.3 19:56:06 10° NNW 20:01:34 45° NE 20:04:03 29° ESE
STARLINK-1200 3.8 19:58:02 10° WNW 20:02:07 58° SSW 20:03:07 44° SSE
Cosmos 1408 3.2 19:58:43 10° N 20:02:09 38° ENE 20:02:18 38° E
Cosmos 841 Rocket 4.0 19:59:47 10° NNW 20:04:54 47° ENE 20:06:47 33° ESE
STARLINK-1192 3.8 20:03:02 10° WNW 20:07:06 55° SSW 20:07:55 46° SSE
CARTOSAT-1 3.9 20:06:16 41° ESE 20:07:15 49° ENE 20:11:27 10° N
Cosmos 2218 Rocket 4.0 20:01:55 10° N 20:08:09 86° W 20:12:18 23° S
IGS 5A 3.3 20:06:53 43° SSE 20:08:12 81° ENE 20:12:23 10° NNW
Iridium 2 3.6 20:07:49 35° S 20:09:20 86° W 20:13:11 10° N
Cosmos 1356 Rocket 4.3 20:10:36 33° E 20:10:36 33° E 20:14:04 10° NNE
Okean 3 Rocket 4.0 20:07:45 10° N 20:12:00 44° ENE 20:12:40 41° E
STARLINK-1244 3.9 20:08:00 10° WNW 20:12:03 52° SSW 20:12:41 47° S
Resurs 01 Rocket 2.9 20:08:29 13° SSW 20:12:05 36° W 20:16:13 10° NNW
ERBS 2.5 20:08:59 10° WNW 20:12:19 56° SW 20:12:22 56° SSW
Mayak 1.1 20:10:39 10° NE 20:11:12 12° ENE 20:11:12 12° ENE
Cosmos 468 Rocket 3.9 20:10:47 10° NNW 20:15:59 81° WSW 20:18:01 38° SSE
ATLAS CENTAUR R/B 2.0 20:12:16 10° NW 20:16:03 40° NE 20:16:45 36° ENE
BREEZE-M DEB (TANK) 3.1 20:13:29 10° WSW 20:15:11 25° WSW 20:15:11 25° WSW
STARLINK-1138 3.9 20:12:59 10° WNW 20:17:01 50° SSW 20:17:28 47° S
Cosmos 1766 Rocket 4.1 20:13:00 10° N 20:17:18 42° ENE 20:17:48 41° E
SL-16 R/B 4.1 20:14:43 10° NNW 20:18:52 20° NNE 20:22:22 12° ENE
Cosmos 1570 Rocket 4.1 20:14:51 10° NNW 20:20:14 69° ENE 20:21:55 43° SE
Meteor 2-12 Rocket 4.4 20:14:18 10° N 20:20:28 90° SW 20:23:32 31° S
CZ-4B DEB 4.3 20:21:15 82° SSW 20:21:21 84° WSW 20:24:45 10° NNW
STARLINK-1143 4.0 20:17:58 10° WNW 20:21:57 47° SSW 20:22:14 46° SSW
SL-8 Rocket 4.5 20:18:16 10° NNW 20:24:27 59° W 20:29:12 18° SSW
STARLINK-1241 4.1 20:22:59 10° W 20:26:57 45° SSW 20:27:04 45° SSW
Cosmos 2181 Rocket 4.1 20:20:51 10° SSW 20:27:06 75° WNW 20:33:17 10° N
Cosmos 2322 Rocket 4.2 20:23:15 10° NNW 20:27:20 20° NNE 20:30:46 12° ENE
Meteor 2-3 Rocket 4.4 20:21:59 10° N 20:27:23 39° ENE 20:28:43 35° E
Cosmos 676 Rocket 4.3 20:23:38 10° SW 20:28:54 66° WNW 20:34:08 10° NNE
ERS-1 Rocket 2.9 20:27:20 45° SSE 20:28:55 87° ENE 20:33:59 10° NNW
Cosmos 1656 3.6 20:23:18 10° NNW 20:29:01 85° WSW 20:30:56 44° SSE
Cosmos 1455 2.9 20:30:11 41° NE 20:30:11 41° NE 20:33:07 10° NNE
Cosmos 1980 Rocket 2.9 20:25:26 10° NNW 20:30:47 43° NE 20:32:34 33° E
Cosmos 1892 3.1 20:27:26 10° NNW 20:31:18 61° W 20:32:00 50° SW
Cosmos 1812 Rocket 3.6 20:29:45 35° SSW 20:31:31 74° W 20:35:53 10° N
STARLINK-1239 4.2 20:27:56 10° W 20:31:48 42° SSW 20:31:48 42° SSW
SPOT 5 2.4 20:34:13 65° SE 20:34:50 82° ENE 20:39:11 10° NNW
STARLINK-60 4.5 20:33:05 10° WSW 20:34:55 31° WSW 20:34:55 31° WSW
STARLINK-1240 4.4 20:32:57 10° W 20:36:36 40° SW 20:36:36 40° SW
Cosmos 2366 rocket 4.4 20:31:19 10° NNW 20:37:21 59° W 20:41:05 24° SSW
Cosmos 2344 4.4 20:32:32 10° NW 20:41:20 68° NE 20:48:33 27° ESE
Cosmos 1825 2.3 20:37:37 10° N 20:41:04 66° NNE 20:41:04 66° NNE
Terra 1.7 20:42:27 63° SE 20:43:07 75° ENE 20:47:54 10° NNW
ATLAS 5 CENTAUR R/B 2.3 20:40:57 10° WSW 20:45:12 54° NW 20:50:09 10° NE
Cosmos 2058 4.3 20:45:48 10° NNW 20:49:32 34° W 20:50:48 27° SW
Cosmos 2151 2.9 20:45:27 10° NNW 20:49:40 76° W 20:49:51 74° SW
Cosmos 2360 4.3 20:45:56 10° NNW 20:51:38 69° NE 20:52:50 54° ESE
Nadezhda 3 Rocket 4.0 20:50:21 48° SSE 20:51:58 65° E 20:58:11 10° NNE
RESURS DK-1 2.5 20:49:15 10° NW 20:53:17 67° WSW 20:53:17 67° WSW
SPOT 1/Viking Rocket 4.2 20:52:37 33° SSW 20:54:32 49° W 20:59:38 10° NNW
Cosmos 1741 Rocket 3.9 20:54:59 44° SSW 20:56:44 88° ESE 21:02:06 10° NNE
Cosmos 2278 3.7 20:52:17 10° NNW 20:57:58 72° NE 20:58:59 58° ESE
Cosmos 1408 Rocket 3.7 20:54:12 10° N 20:58:24 63° NE 20:58:24 63° NE
Cosmos 1743 Rocket 4.5 20:55:26 10° N 20:59:12 37° ENE 20:59:12 37° ENE
Cosmos 2208 Rocket 4.0 20:54:49 10° NNW 21:00:01 73° WSW 21:00:47 61° SSW
SL-4 R/B 3.5 20:56:48 10° W 20:58:16 24° W 20:58:16 24° W
Cosmos 2082 Rocket 3.4 21:04:00 27° ENE 21:04:00 27° ENE 21:07:13 10° NE
Cosmos 1763 Rocket 4.4 21:04:36 10° NW 21:09:23 38° WSW 21:10:29 34° SW
Cosmos 1833 Rocket 2.9 21:13:43 52° E 21:13:43 52° E 21:18:35 10° NE
Cosmos 2239 Rocket 4.5 21:08:25 10° NNW 21:14:41 80° W 21:16:11 54° S
Cosmos 1821 Rocket 4.2 21:12:26 10° NNW 21:18:46 68° W 21:20:35 47° SSW
BREEZE M DEB (TANK) 4.0 21:14:07 10° WSW 21:18:50 67° SSE 21:36:14 10° E
Cosmos 1814 Rocket 4.2 21:13:38 10° NNW 21:18:56 61° WSW 21:19:27 58° SW
Cosmos 540 Rocket 3.6 21:13:53 10° NNW 21:18:58 59° WSW 21:19:20 58° SW
Spot 4 4.3 21:20:22 48° ENE 21:20:22 48° ENE 21:24:47 10° N
Cosmos 2221 4.0 21:21:51 28° NE 21:21:51 28° NE 21:24:18 10° NNE
Cosmos-2242 3.5 21:21:21 55° W 21:21:27 55° WNW 21:25:46 10° N
COSMOS 2406 3.1 21:20:59 52° SW 21:22:27 85° WNW 21:28:14 10° NNE
Cosmos 1934 Rocket 3.8 21:17:19 10° N 21:23:39 88° E 21:24:38 66° SSE
USA 234 3.1 21:17:31 10° ENE 21:24:06 81° SSE 21:30:40 10° WSW
Meteor 2-10 Rocket 3.8 21:23:20 50° SW 21:24:31 65° WNW 21:29:58 10° N
Cosmos 1605 Rocket 3.8 21:31:53 10° N 21:38:03 77° ENE 21:38:36 71° SE
Cosmos 2369 4.2 21:34:25 10° NW 21:39:49 47° WSW 21:40:06 47° WSW
CZ-4C R/B 2.8 21:33:27 10° NW 21:40:26 77° SW 21:41:59 59° SSE
Cosmos 2084 4.2 21:37:35 10° NW 21:41:15 52° N 21:41:15 52° N
ASTEX 1 3.7 21:44:36 61° W 21:44:36 61° W 21:49:26 10° NNW
Cosmos 1697 Rocket 3.4 21:40:14 10° NW 21:45:33 42° WSW 21:45:47 42° WSW
Sich 1 4.4 21:43:04 10° N 21:46:12 33° NE 21:46:12 33° NE
Mayak -0.2 21:44:51 10° N 21:47:46 44° N 21:47:46 44° N
Cosmos 1339 Rocket 4.4 21:53:44 73° ESE 21:54:02 74° E 22:00:27 10° NNE
ALOS 2 3.7 21:55:17 40° NNE 21:55:17 40° NNE 21:58:30 10° N
ATLAS CENTAUR R/B 3.4 21:51:23 10° WNW 21:52:56 20° WNW 21:52:56 20° WNW
SL-16 R/B 2.4 21:58:30 10° NNW 22:04:10 62° NE 22:04:13 62° ENE
Cosmos 2360 Rocket 3.2 22:02:19 10° NNW 22:07:32 37° NE 22:08:30 34° ENE
Cosmos 2322 Rocket 2.4 22:06:57 10° NNW 22:12:33 61° NE 22:12:33 61° NE
Cosmos 1980 Rocket 2.9 22:09:32 10° NW 22:14:20 43° W 22:14:20 43° W
NOSS 2-1 (C) 4.3 22:14:36 10° NW 22:19:11 68° NNE 22:19:11 68° NNE
Terra 3.9 22:21:20 18° W 22:21:26 18° W 22:24:39 10° NW
Cosmos 2333 Rocket 4.0 22:17:47 10° NNW 22:22:28 25° NE 22:25:05 18° ENE
NOSS 2-1 (D) 4.3 22:18:50 10° NW 22:23:20 70° NNE 22:23:20 70° NNE
Meteor 2-2 Rocket 4.3 22:25:15 77° N 22:25:15 77° N 22:30:32 10° NNE
Cosmos 1633 Rocket 4.4 22:20:52 10° N 22:23:48 36° NNE 22:23:48 36° NNE
ATLAS 5 CENTAUR R/B 3.9 22:26:55 10° WNW 22:30:53 26° N 22:35:23 10° NE
Cosmos 2061 Rocket 4.2 22:25:39 10° N 22:31:50 57° ENE 22:32:00 56° E
Cosmos 1607 4.0 22:38:22 69° ENE 22:38:22 69° ENE 22:43:54 10° NE
Helios 1A 4.4 22:40:49 36° NNW 22:40:49 36° NNW 22:43:20 10° NNW
Thor Agena Rocket 4.3 22:34:48 10° N 22:39:37 45° WNW 22:39:38 45° WNW
Cosmos 2082 Rocket 2.6 22:45:47 56° WNW 22:46:06 57° NW 22:51:43 10° NNE
SL-16 R/B 4.4 22:46:28 15° E 22:49:43 23° NE 22:54:24 10° N
Cosmos 1459 Rocket 3.9 22:43:21 10° N 22:49:42 85° WNW 22:49:42 85° WNW
Cosmos 1833 Rocket 4.0 22:55:22 29° W 22:57:16 36° NW 23:02:29 10° NNE
Cosmos 2221 4.3 22:58:41 27° NW 22:58:41 27° NW 23:01:43 10° N
Cosmos 1727 Rocket 4.1 22:58:39 64° W 22:58:53 64° WNW 23:05:12 10° N
Cosmos 2233 Rocket 4.5 22:52:55 10° N 22:59:01 48° ENE 22:59:27 48° E
Cosmos 1503 Rocket 4.5 23:02:42 58° N 23:02:42 58° N 23:06:55 10° NNE
Cosmos 2219 Rocket 3.3 23:00:48 10° NNW 23:06:01 37° NE 23:07:20 33° ENE
Cosmos 1725 Rocket 4.0 23:00:14 10° N 23:06:34 77° ENE 23:06:34 77° ENE
Cosmos 2016 Rocket 3.9 23:00:30 10° N 23:06:48 87° NNW 23:06:48 87° NNW
USA 234 3.6 23:00:37 10° ENE 23:07:05 64° N 23:13:32 10° W
Cosmos 1802 Rocket 3.9 23:02:02 10° NNW 23:07:59 75° WNW 23:07:59 75° WNW
Cosmos 2100 Rocket 4.3 23:07:07 10° NNW 23:12:57 56° W 23:12:57 56° W
Helios 1B rocket 4.3 23:10:21 10° NNE 23:12:22 26° NE 23:12:22 26° NE
Cosmos 2237 4.4 23:10:50 10° NNW 23:15:46 67° NW 23:15:46 67° NW
Cosmos 2123 Rocket 4.0 23:19:41 71° ENE 23:19:41 71° ENE 23:25:37 10° NNE
Cosmos 1680 Rocket 4.3 23:15:24 10° NNW 23:20:25 44° NE 23:20:30 44° ENE
SL-08 R/B 4.4 23:15:03 10° NNW 23:21:06 82° WNW 23:21:06 82° WNW
Cosmos 2173 Rocket 4.4 23:16:18 10° NNW 23:21:50 51° W 23:21:50 51° W
Mayak 1.4 23:22:14 10° NNW 23:23:52 12° NW 23:24:21 12° WNW
Cosmos 2322 3.9 23:20:00 10° NNW 23:25:36 67° NE 23:25:36 67° NE
COSMOS 2428 3.5 23:21:34 10° NNW 23:27:06 47° NE 23:28:04 43° ENE
CZ-4C R/B 4.3 23:22:45 10° WNW 23:27:10 23° W 23:27:10 23° W
Cosmos 2333 4.4 23:24:39 10° NNW 23:30:02 66° NE 23:30:02 66° NE
SJ 16-02 3.7 23:37:59 16° ENE 23:37:59 16° ENE 23:39:34 10° NE
Resurs 1-4 Rocket 4.0 23:34:00 10° NE 23:37:42 19° E 23:37:53 19° E
Meteor 1-20 Rocket 4.4 23:32:38 10° NNW 23:37:48 68° NW 23:37:48 68° NW
MOS 1-B Rocket 4.3 23:39:50 10° NNE 23:45:51 64° WNW 23:46:30 61° W
SL-16 R/B 3.8 23:43:07 10° NW 23:46:05 24° WNW 23:46:05 24° WNW
Cosmos 2228 Rocket 4.2 23:50:00 43° NE 23:50:00 43° NE 23:53:16 10° NNE
Cosmos 2360 Rocket 3.0 23:46:19 10° NW 23:50:15 41° WNW 23:50:15 41° WNW
